TimeEST,TemperatureF,Dew PointF,Humidity,Sea Level PressureIn,VisibilityMPH,Wind Direction,Wind SpeedMPH,Gust SpeedMPH,PrecipitationIn,Events,Conditions,WindDirDegrees,DateUTC
12:52 AM,39.9,32.0,73,30.25,7.0,South,10.4,-,0.00,Rain,Light Rain,190,2013-02-11 05:52:00
1:52 AM,39.0,34.0,82,30.22,7.0,South,8.1,-,0.04,Rain,Light Rain,180,2013-02-11 06:52:00
2:38 AM,39.2,35.6,87,30.20,5.0,South,8.1,-,0.01,,Light Drizzle,180,2013-02-11 07:38:00
2:52 AM,39.0,35.1,86,30.19,4.0,South,6.9,-,0.02,Rain,Light Rain,180,2013-02-11 07:52:00
3:19 AM,39.2,35.6,87,30.16,5.0,South,6.9,-,0.02,Rain,Light Rain,180,2013-02-11 08:19:00
3:40 AM,39.2,35.6,87,30.16,4.0,SSW,5.8,-,0.04,Rain,Light Rain,210,2013-02-11 08:40:00
3:52 AM,37.9,36.0,93,30.15,4.0,South,5.8,-,0.05,Rain,Light Rain,190,2013-02-11 08:52:00
4:39 AM,37.4,35.6,93,30.11,4.0,South,3.5,-,0.07,Rain,Light Rain,180,2013-02-11 09:39:00
4:52 AM,37.9,36.0,93,30.12,5.0,SSW,5.8,-,0.08,Rain,Light Rain,200,2013-02-11 09:52:00
5:11 AM,37.4,35.6,93,30.11,2.5,SSW,3.5,-,0.01,Rain,Light Rain,200,2013-02-11 10:11:00
5:29 AM,37.4,35.6,93,30.10,3.0,SSE,3.5,-,0.03,Rain,Light Rain,150,2013-02-11 10:29:00
5:52 AM,37.9,36.0,93,30.09,9.0,South,6.9,-,0.04,Rain,Light Rain,180,2013-02-11 10:52:00
6:31 AM,39.2,37.4,93,30.07,5.0,South,6.9,-,0.04,Rain,Light Rain,170,2013-02-11 11:31:00
6:52 AM,39.0,37.0,93,30.07,5.0,South,6.9,-,0.05,Rain,Light Rain,180,2013-02-11 11:52:00
7:22 AM,39.2,37.4,93,30.07,6.0,South,8.1,-,0.00,,Overcast,180,2013-02-11 12:22:00
7:52 AM,39.0,37.0,93,30.04,5.0,South,12.7,-,0.00,,Overcast,180,2013-02-11 12:52:00
8:52 AM,39.9,37.9,93,30.03,3.0,South,8.1,-,0.00,,Light Drizzle,190,2013-02-11 13:52:00
9:16 AM,41.0,39.2,93,30.02,2.5,South,6.9,-,0.00,,Light Drizzle,180,2013-02-11 14:16:00
9:34 AM,41.0,39.2,93,30.01,2.5,South,8.1,-,0.00,,Light Drizzle,190,2013-02-11 14:34:00
9:52 AM,41.0,39.0,93,30.01,4.0,South,10.4,-,0.00,,Overcast,190,2013-02-11 14:52:00
10:14 AM,42.8,39.2,87,29.99,2.0,South,11.5,-,N/A,,Overcast,180,2013-02-11 15:14:00
10:28 AM,42.8,39.2,87,29.98,1.5,South,11.5,-,N/A,,Overcast,180,2013-02-11 15:28:00
10:52 AM,42.1,41.0,96,29.97,1.5,South,12.7,-,N/A,,Overcast,180,2013-02-11 15:52:00
11:36 AM,44.6,42.8,93,29.93,2.5,South,9.2,-,N/A,,Overcast,180,2013-02-11 16:36:00
11:46 AM,44.6,42.8,93,29.92,4.0,South,9.2,-,N/A,,Overcast,180,2013-02-11 16:46:00
11:52 AM,44.1,43.0,96,29.92,4.0,South,9.2,-,N/A,,Overcast,180,2013-02-11 16:52:00
12:52 PM,45.0,43.0,93,29.87,5.0,South,9.2,-,N/A,,Overcast,190,2013-02-11 17:52:00
1:52 PM,48.9,46.0,90,29.83,5.0,SSW,9.2,-,N/A,,Overcast,200,2013-02-11 18:52:00
2:09 PM,48.2,46.4,93,29.82,6.0,South,8.1,-,N/A,,Overcast,190,2013-02-11 19:09:00
2:44 PM,50.0,46.4,87,29.79,9.0,South,10.4,-,N/A,,Overcast,190,2013-02-11 19:44:00
2:52 PM,50.0,46.9,89,29.79,9.0,SSW,9.2,-,N/A,,Overcast,200,2013-02-11 19:52:00
3:09 PM,53.6,48.2,82,29.79,10.0,SSW,11.5,-,N/A,,Overcast,200,2013-02-11 20:09:00
3:52 PM,53.1,48.9,86,29.79,10.0,SSW,13.8,-,N/A,,Overcast,200,2013-02-11 20:52:00
4:02 PM,53.6,48.2,82,29.78,10.0,SSW,12.7,-,N/A,,Overcast,200,2013-02-11 21:02:00
4:52 PM,53.1,48.9,86,29.77,10.0,SSW,15.0,-,N/A,,Overcast,200,2013-02-11 21:52:00
5:52 PM,53.1,48.9,86,29.75,10.0,SSW,16.1,23.0,N/A,,Mostly Cloudy,200,2013-02-11 22:52:00
6:52 PM,53.1,48.9,86,29.73,10.0,South,12.7,-,N/A,,Mostly Cloudy,190,2013-02-11 23:52:00
7:52 PM,54.0,48.9,83,29.73,10.0,SSW,10.4,-,N/A,,Mostly Cloudy,210,2013-02-12 00:52:00
8:52 PM,52.0,48.0,86,29.74,10.0,SW,8.1,-,N/A,,Mostly Cloudy,220,2013-02-12 01:52:00
9:52 PM,51.1,46.9,86,29.76,10.0,WSW,4.6,-,N/A,,Scattered Clouds,240,2013-02-12 02:52:00
10:52 PM,53.1,46.0,77,29.78,10.0,West,5.8,-,N/A,,Partly Cloudy,260,2013-02-12 03:52:00
11:52 PM,46.0,43.0,89,29.81,10.0,Calm,Calm,-,N/A,,Partly Cloudy,0,2013-02-12 04:52:00